Home > Weather > Germany > Wetzlar > Past weeks

Flag for Germany Weather past 2 weeks in Wetzlar, Hesse, Germany

51 °F

Low clouds.

Feels Like: 49 °F
Forecast: 42 / 51 °F
Wind: 6 mph from Southwest

Location: Giessen

Current Time: Dec 1, 2015 at 10:58:19 PM

Latest Report: Dec 1, 2015 at 10:00 PM

Visibility: 11 mi

Pressure: 30.31 "Hg

Humidity: 98%

Dew point: 51 °F

Location of WetzlarLocation

Historic Weather in Wetzlar — Graph


Wetzlar temperature yesterday

Maximum temperature yesterday: 49 °F (at 7:00 PM)
Minimum temperature yesterday: 45 °F (at 9:00 AM)
Average temperature yesterday: 47 °F

Past Weeks' High & Low Weather Summary

High58 °F (Nov 18, 2:00 AM)100% (Nov 19, 8:00 PM)30.32 "Hg (Nov 19, 8:00 PM)
Low28 °F (Nov 24, 4:00 AM)60% (Nov 18, 4:00 AM)29.41 "Hg (Nov 21, 1:00 PM)
Average42 °F89%29.92 "Hg
* Reported Nov 16 9:00 PM — Dec 1 9:00 PM, Wetzlar, Weather by CustomWeather, © 2015

Note: Actual official high and low records may vary slightly from our data, if they occured in-between our weather recording intervals... More about our weather records


Wetzlar weather history for previous 24 hours

Time TempWeatherWind HumidityBarometerVisibility
9:00 PM
Tue, Dec 1
51 °FLow clouds.6 mph99%30.30 "Hg4 mi
8:00 PM51 °FDrizzle. Low clouds.6 mph99%30.29 "Hg6 mi
7:00 PM51 °FDrizzle. Low clouds.5 mph100%30.28 "Hg2 mi
6:00 PM49 °FDrizzle. Low clouds.3 mph100%30.28 "Hg3 mi
5:00 PM49 °FDrizzle. Low clouds.2 mph100%30.27 "Hg5 mi
4:00 PM49 °FDrizzle. Low clouds.3 mph100%30.26 "Hg3 mi
3:00 PM49 °FLight rain. Low clouds.3 mph99%30.25 "Hg2 mi
2:00 PM48 °FDrizzle. Low clouds.3 mph99%30.25 "Hg4 mi
1:00 PM48 °FDrizzle. Low clouds.5 mph97%30.24 "Hg6 mi
12:00 PM49 °FLight rain. Low clouds.5 mph98%30.24 "Hg6 mi
11:00 AM48 °FLight rain. Overcast.3 mph96%30.24 "Hg12 mi
10:00 AM49 °FLight rain. Overcast.3 mph97%30.21 "Hg8 mi
8:00 AM49 °FLight rain. Low clouds.5 mph93%30.16 "Hg6 mi
7:00 AM50 °FLight rain. Low clouds.3 mph100%30.14 "Hg2 mi
6:00 AM50 °FLight rain. Low clouds.6 mph99%30.10 "Hg2 mi
4:00 AM49 °FDrizzle. Low clouds.9 mph97%30.05 "Hg15 mi
3:00 AM49 °FOvercast.10 mph95%30.02 "Hg16 mi
2:00 AM49 °FLow clouds.12 mph96%29.99 "Hg7 mi
1:00 AM49 °FLight rain. Low clouds.10 mph96%29.98 "Hg8 mi
11:00 PM
Mon, Nov 30
49 °FLight rain. Low clouds.12 mph96%29.95 "Hg7 mi
10:00 PM48 °FLight rain. Low clouds.12 mph94%29.95 "Hg10 mi
Weather by CustomWeather, © 2015

See weather overviewHow to use our weather pages